Time,TemperatureF,DewpointF,PressureIn,WindDirection,WindDirectionDegrees,WindSpeedMPH,WindSpeedGustMPH,Humidity,HourlyPrecipIn,Conditions,Clouds,dailyrainin,SoftwareType,DateUTC
2013-08-25 00:01:00,56.5,54.5,29.92,South,178,2.0,2.0,93,0.00,,,0.00,meteohub,2013-08-24 11:01:00,
2013-08-25 00:06:00,56.5,54.5,29.92,SSE,155,1.0,2.0,93,0.00,,,0.00,meteohub,2013-08-24 11:06:00,
2013-08-25 00:11:00,56.7,54.7,29.91,SE,136,1.0,2.0,93,0.00,,,0.00,meteohub,2013-08-24 11:11:00,
2013-08-25 00:16:00,56.7,54.3,29.92,SE,143,1.0,2.0,92,0.00,,,0.00,meteohub,2013-08-24 11:16:00,
2013-08-25 00:21:00,56.7,54.3,29.91,SE,143,1.0,2.0,92,0.00,,,0.00,meteohub,2013-08-24 11:21:00,
2013-08-25 00:26:00,56.7,54.3,29.91,SE,143,0.0,2.0,92,0.00,,,0.00,meteohub,2013-08-24 11:26:00,
2013-08-25 00:31:00,56.5,54.5,29.91,SE,143,1.0,2.0,93,0.00,,,0.00,meteohub,2013-08-24 11:31:00,
2013-08-25 00:36:00,56.5,54.5,29.91,SSE,164,1.0,1.0,93,0.00,,,0.00,meteohub,2013-08-24 11:36:00,
2013-08-25 00:41:00,56.5,54.5,29.91,SSE,167,1.0,1.0,93,0.00,,,0.00,meteohub,2013-08-24 11:41:00,
2013-08-25 00:46:00,56.5,54.5,29.91,SE,145,1.0,2.0,93,0.00,,,0.00,meteohub,2013-08-24 11:46:00,
2013-08-25 00:51:00,56.5,54.5,29.91,South,180,1.0,2.0,93,0.00,,,0.00,meteohub,2013-08-24 11:51:00,
2013-08-25 00:56:00,56.5,54.5,29.91,SSE,160,1.0,3.0,93,0.00,,,0.00,meteohub,2013-08-24 11:56:00,
2013-08-25 01:01:00,56.7,54.7,29.91,SSE,151,0.0,3.0,93,0.00,,,0.00,meteohub,2013-08-24 12:01:00,
2013-08-25 01:06:00,56.7,54.3,29.91,SE,140,1.0,3.0,92,0.00,,,0.00,meteohub,2013-08-24 12:06:00,
2013-08-25 01:11:00,56.7,54.3,29.91,SE,141,1.0,2.0,92,0.00,,,0.00,meteohub,2013-08-24 12:11:00,
2013-08-25 01:16:00,56.7,54.3,29.91,SE,133,1.0,2.0,92,0.00,,,0.00,meteohub,2013-08-24 12:16:00,
2013-08-25 01:21:00,56.7,54.3,29.91,SE,142,0.0,2.0,92,0.00,,,0.00,meteohub,2013-08-24 12:21:00,
2013-08-25 01:27:00,56.7,54.3,29.91,SE,146,1.0,2.0,92,0.00,,,0.00,meteohub,2013-08-24 12:27:00,
2013-08-25 01:32:00,56.7,54.3,29.91,SE,146,0.0,2.0,92,0.00,,,0.00,meteohub,2013-08-24 12:32:00,
2013-08-25 01:37:00,56.7,54.3,29.91,SE,146,0.0,1.0,92,0.00,,,0.00,meteohub,2013-08-24 12:37:00,
2013-08-25 01:42:00,56.5,54.5,29.91,SE,146,0.0,1.0,93,0.00,,,0.00,meteohub,2013-08-24 12:42:00,
2013-08-25 01:47:00,56.1,54.5,29.91,SE,134,1.0,1.0,94,0.00,,,0.00,meteohub,2013-08-24 12:47:00,
2013-08-25 01:52:00,56.1,54.5,29.90,SE,124,1.0,3.0,94,0.00,,,0.00,meteohub,2013-08-24 12:52:00,
2013-08-25 01:57:00,55.9,54.3,29.90,SE,125,1.0,3.0,94,0.00,,,0.00,meteohub,2013-08-24 12:57:00,
2013-08-25 02:02:00,55.9,54.3,29.90,ESE,119,2.0,3.0,94,0.00,,,0.00,meteohub,2013-08-24 13:02:00,
2013-08-25 02:07:00,56.1,54.5,29.90,ESE,113,0.0,2.0,94,0.00,,,0.00,meteohub,2013-08-24 13:07:00,
2013-08-25 02:12:00,56.1,54.5,29.90,ESE,116,1.0,2.0,94,0.00,,,0.00,meteohub,2013-08-24 13:12:00,
2013-08-25 02:17:00,55.9,54.3,29.90,ESE,110,2.0,2.0,94,0.00,,,0.00,meteohub,2013-08-24 13:17:00,
2013-08-25 02:22:00,55.8,54.3,29.90,East,96,4.0,4.0,95,0.00,,,0.00,meteohub,2013-08-24 13:22:00,
2013-08-25 02:27:00,55.9,54.5,29.90,East,89,3.0,4.0,95,0.00,,,0.00,meteohub,2013-08-24 13:27:00,
2013-08-25 02:32:00,55.9,54.3,29.90,East,91,3.0,4.0,94,0.00,,,0.00,meteohub,2013-08-24 13:32:00,
2013-08-25 02:37:00,55.9,54.3,29.90,East,92,2.0,4.0,94,0.00,,,0.00,meteohub,2013-08-24 13:37:00,
2013-08-25 02:42:00,56.1,54.5,29.90,East,86,3.0,4.0,94,0.00,,,0.00,meteohub,2013-08-24 13:42:00,
2013-08-25 02:47:00,56.3,54.7,29.90,East,89,4.0,4.0,94,0.00,,,0.00,meteohub,2013-08-24 13:47:00,
2013-08-25 02:52:00,56.3,54.7,29.91,East,87,4.0,4.0,94,0.00,,,0.00,meteohub,2013-08-24 13:52:00,
2013-08-25 02:57:00,56.3,54.7,29.91,East,83,3.0,4.0,94,0.00,,,0.00,meteohub,2013-08-24 13:57:00,
2013-08-25 03:02:00,56.3,54.7,29.91,East,86,2.0,4.0,94,0.00,,,0.00,meteohub,2013-08-24 14:02:00,
2013-08-25 03:07:00,56.3,54.7,29.91,ENE,67,3.0,4.0,94,0.00,,,0.00,meteohub,2013-08-24 14:07:00,
2013-08-25 03:12:00,56.3,54.7,29.91,ENE,65,3.0,4.0,94,0.00,,,0.00,meteohub,2013-08-24 14:12:00,
2013-08-25 03:17:00,56.3,54.7,29.91,ENE,64,3.0,4.0,94,0.00,,,0.00,meteohub,2013-08-24 14:17:00,
2013-08-25 03:22:00,56.3,54.7,29.91,ENE,65,2.0,4.0,94,0.00,,,0.00,meteohub,2013-08-24 14:22:00,
2013-08-25 03:27:00,56.3,54.7,29.91,ENE,61,2.0,4.0,94,0.00,,,0.00,meteohub,2013-08-24 14:27:00,
2013-08-25 03:32:00,56.5,54.9,29.91,ENE,61,0.0,3.0,94,0.00,,,0.00,meteohub,2013-08-24 14:32:00,
2013-08-25 03:37:00,56.3,54.7,29.91,ENE,77,1.0,3.0,94,0.00,,,0.00,meteohub,2013-08-24 14:37:00,
2013-08-25 03:43:00,56.3,54.7,29.91,East,82,0.0,3.0,94,0.00,,,0.00,meteohub,2013-08-24 14:43:00,
2013-08-25 03:48:00,56.3,54.9,29.92,ESE,112,0.0,2.0,95,0.00,,,0.00,meteohub,2013-08-24 14:48:00,
2013-08-25 03:53:00,56.1,54.5,29.92,ENE,70,3.0,3.0,94,0.00,,,0.00,meteohub,2013-08-24 14:53:00,
2013-08-25 03:58:00,56.1,54.5,29.91,ENE,58,3.0,3.0,94,0.00,,,0.00,meteohub,2013-08-24 14:58:00,
2013-08-25 04:03:00,56.3,54.7,29.91,ENE,57,3.0,4.0,94,0.00,,,0.00,meteohub,2013-08-24 15:03:00,
2013-08-25 04:08:00,56.5,54.9,29.91,ENE,68,2.0,4.0,94,0.00,,,0.00,meteohub,2013-08-24 15:08:00,
2013-08-25 04:13:00,56.5,54.9,29.91,NE,51,2.0,4.0,94,0.00,,,0.00,meteohub,2013-08-24 15:13:00,
2013-08-25 04:18:00,56.5,54.9,29.91,NE,56,0.0,4.0,94,0.00,,,0.00,meteohub,2013-08-24 15:18:00,
2013-08-25 04:23:00,56.7,55.0,29.91,ENE,65,1.0,4.0,94,0.00,,,0.00,meteohub,2013-08-24 15:23:00,
2013-08-25 04:28:00,56.7,55.0,29.91,ENE,58,1.0,3.0,94,0.00,,,0.00,meteohub,2013-08-24 15:28:00,
2013-08-25 04:33:00,56.7,55.0,29.92,ENE,65,0.0,3.0,94,0.00,,,0.00,meteohub,2013-08-24 15:33:00,
2013-08-25 04:38:00,56.7,55.0,29.92,ENE,67,3.0,3.0,94,0.00,,,0.00,meteohub,2013-08-24 15:38:00,
2013-08-25 04:43:00,56.5,54.9,29.92,ENE,57,4.0,4.0,94,0.00,,,0.00,meteohub,2013-08-24 15:43:00,
2013-08-25 04:48:00,56.5,54.9,29.91,ENE,58,3.0,4.0,94,0.00,,,0.00,meteohub,2013-08-24 15:48:00,
2013-08-25 04:53:00,56.5,55.0,29.91,ENE,58,4.0,5.0,95,0.00,,,0.00,meteohub,2013-08-24 15:53:00,
2013-08-25 04:58:00,56.7,55.0,29.92,ENE,60,3.0,5.0,94,0.00,,,0.00,meteohub,2013-08-24 15:58:00,
2013-08-25 05:03:00,56.7,55.0,29.91,ENE,66,1.0,5.0,94,0.00,,,0.00,meteohub,2013-08-24 16:03:00,
2013-08-25 05:08:00,56.7,55.0,29.92,ENE,75,3.0,5.0,94,0.00,,,0.00,meteohub,2013-08-24 16:08:00,
2013-08-25 05:13:00,56.8,55.4,29.92,NE,48,3.0,5.0,95,0.00,,,0.00,meteohub,2013-08-24 16:13:00,
2013-08-25 05:18:00,56.8,55.2,29.92,NNE,27,2.0,5.0,94,0.00,,,0.00,meteohub,2013-08-24 16:18:00,
2013-08-25 05:23:00,57.0,55.2,29.92,East,91,3.0,5.0,94,0.00,,,0.00,meteohub,2013-08-24 16:23:00,
2013-08-25 05:28:00,57.2,55.2,29.91,NE,37,0.0,5.0,93,0.00,,,0.00,meteohub,2013-08-24 16:28:00,
2013-08-25 05:33:00,58.1,56.1,29.92,NNE,15,2.0,5.0,93,0.00,,,0.00,meteohub,2013-08-24 16:33:00,
2013-08-25 05:38:00,57.9,55.0,29.92,ENE,60,3.0,5.0,90,0.00,,,0.00,meteohub,2013-08-24 16:38:00,
2013-08-25 05:43:00,57.9,55.2,29.92,NE,37,3.0,5.0,91,0.00,,,0.00,meteohub,2013-08-24 16:43:00,
2013-08-25 05:48:00,58.1,55.4,29.92,NE,53,3.0,5.0,91,0.00,,,0.00,meteohub,2013-08-24 16:48:00,
2013-08-25 05:54:00,58.5,55.6,29.92,NNE,23,1.0,5.0,90,0.00,,,0.00,meteohub,2013-08-24 16:54:00,
2013-08-25 05:59:00,58.5,55.2,29.91,NE,56,5.0,5.0,89,0.00,,,0.00,meteohub,2013-08-24 16:59:00,
2013-08-25 06:04:00,58.5,55.8,29.92,NNW,333,3.0,7.0,91,0.00,,,0.00,meteohub,2013-08-24 17:04:00,
2013-08-25 06:09:00,58.5,55.2,29.92,North,353,3.0,7.0,89,0.00,,,0.00,meteohub,2013-08-24 17:09:00,
2013-08-25 06:14:00,58.5,55.6,29.92,NE,40,2.0,7.0,90,0.00,,,0.00,meteohub,2013-08-24 17:14:00,
2013-08-25 06:19:00,58.8,55.9,29.92,NE,48,2.0,5.0,90,0.00,,,0.00,meteohub,2013-08-24 17:19:00,
2013-08-25 06:24:00,59.0,55.8,29.92,NNE,28,5.0,5.0,89,0.00,,,0.00,meteohub,2013-08-24 17:24:00,
2013-08-25 06:29:00,58.8,55.6,29.92,NNE,32,1.0,5.0,89,0.00,,,0.00,meteohub,2013-08-24 17:29:00,
2013-08-25 06:34:00,58.8,55.6,29.92,NE,45,1.0,6.0,89,0.00,,,0.00,meteohub,2013-08-24 17:34:00,
2013-08-25 06:39:00,59.4,56.5,29.92,NNE,31,5.0,6.0,90,0.00,,,0.00,meteohub,2013-08-24 17:39:00,
2013-08-25 06:44:00,59.4,55.8,29.92,NNE,24,3.0,6.0,88,0.00,,,0.00,meteohub,2013-08-24 17:44:00,
2013-08-25 06:49:00,59.4,56.1,29.92,NNE,24,3.0,7.0,89,0.00,,,0.00,meteohub,2013-08-24 17:49:00,
2013-08-25 06:54:00,59.4,55.4,29.92,NNW,343,4.0,7.0,87,0.00,,,0.00,meteohub,2013-08-24 17:54:00,
2013-08-25 06:59:00,59.7,55.8,29.92,NE,37,4.0,7.0,87,0.00,,,0.00,meteohub,2013-08-24 17:59:00,
2013-08-25 07:04:00,59.7,55.8,29.92,ENE,66,2.0,7.0,87,0.00,,,0.00,meteohub,2013-08-24 18:04:00,
2013-08-25 07:09:00,60.3,56.1,29.92,North,349,5.0,7.0,86,0.00,,,0.00,meteohub,2013-08-24 18:09:00,
2013-08-25 07:14:00,60.3,55.8,29.92,NNE,18,1.0,8.0,85,0.00,,,0.00,meteohub,2013-08-24 18:14:00,
2013-08-25 07:19:00,60.4,55.9,29.92,NNE,17,4.0,8.0,85,0.00,,,0.00,meteohub,2013-08-24 18:19:00,
2013-08-25 07:24:00,60.4,55.9,29.92,NNW,329,5.0,8.0,85,0.00,,,0.00,meteohub,2013-08-24 18:24:00,
2013-08-25 07:29:00,60.6,56.1,29.92,NE,41,1.0,6.0,85,0.00,,,0.00,meteohub,2013-08-24 18:29:00,
2013-08-25 07:34:00,61.0,56.5,29.92,NNE,13,5.0,6.0,85,0.00,,,0.00,meteohub,2013-08-24 18:34:00,
2013-08-25 07:40:00,60.8,55.6,29.92,NE,55,2.0,8.0,83,0.00,,,0.00,meteohub,2013-08-24 18:40:00,
2013-08-25 07:45:00,61.0,56.1,29.91,NW,323,2.0,9.0,84,0.00,,,0.00,meteohub,2013-08-24 18:45:00,
2013-08-25 07:50:00,61.3,55.8,29.91,NNE,18,5.0,9.0,82,0.00,,,0.00,meteohub,2013-08-24 18:50:00,
2013-08-25 07:55:00,61.9,56.3,29.91,NNW,335,6.0,9.0,82,0.00,,,0.00,meteohub,2013-08-24 18:55:00,
2013-08-25 08:00:00,61.5,55.9,29.91,NNE,18,6.0,8.0,82,0.00,,,0.00,meteohub,2013-08-24 19:00:00,
2013-08-25 08:05:00,61.5,55.6,29.91,East,82,3.0,8.0,81,0.00,,,0.00,meteohub,2013-08-24 19:05:00,
2013-08-25 08:10:00,62.1,55.8,29.91,North,8,6.0,8.0,80,0.00,,,0.00,meteohub,2013-08-24 19:10:00,
2013-08-25 08:15:00,62.1,55.4,29.91,NE,46,3.0,8.0,79,0.00,,,0.00,meteohub,2013-08-24 19:15:00,
2013-08-25 08:20:00,62.4,55.8,29.91,NW,306,3.0,8.0,79,0.00,,,0.00,meteohub,2013-08-24 19:20:00,
2013-08-25 08:25:00,62.8,56.5,29.91,NE,36,6.0,8.0,80,0.00,,,0.00,meteohub,2013-08-24 19:25:00,
2013-08-25 08:30:00,62.8,56.1,29.91,NE,39,10.0,10.0,79,0.00,,,0.00,meteohub,2013-08-24 19:30:00,
2013-08-25 08:35:00,62.8,56.1,29.90,NNE,23,5.0,9.0,79,0.00,,,0.00,meteohub,2013-08-24 19:35:00,
2013-08-25 08:40:00,63.3,56.3,29.90,NNE,27,3.0,11.0,78,0.00,,,0.00,meteohub,2013-08-24 19:40:00,
2013-08-25 08:45:00,63.7,55.9,29.90,NNE,13,2.0,11.0,76,0.00,,,0.00,meteohub,2013-08-24 19:45:00,
2013-08-25 08:50:00,63.7,55.9,29.91,North,349,3.0,9.0,76,0.00,,,0.00,meteohub,2013-08-24 19:50:00,
2013-08-25 08:55:00,63.9,56.5,29.91,NE,55,5.0,9.0,77,0.00,,,0.00,meteohub,2013-08-24 19:55:00,
2013-08-25 09:00:00,63.9,55.8,29.91,North,356,1.0,9.0,75,0.00,,,0.00,meteohub,2013-08-24 20:00:00,
2013-08-25 09:05:00,64.0,55.9,29.91,North,359,4.0,9.0,75,0.00,,,0.00,meteohub,2013-08-24 20:05:00,
2013-08-25 09:10:00,64.9,56.1,29.90,North,2,3.0,9.0,73,0.00,,,0.00,meteohub,2013-08-24 20:10:00,
2013-08-25 09:15:00,64.9,56.5,29.90,NNE,13,4.0,6.0,74,0.00,,,0.00,meteohub,2013-08-24 20:15:00,
2013-08-25 09:20:00,65.8,57.0,29.90,ENE,77,3.0,6.0,73,0.00,,,0.00,meteohub,2013-08-24 20:20:00,
2013-08-25 09:25:00,65.8,56.5,29.90,WNW,288,1.0,7.0,72,0.00,,,0.00,meteohub,2013-08-24 20:25:00,
2013-08-25 09:31:00,66.0,56.3,29.90,NW,304,5.0,8.0,71,0.00,,,0.00,meteohub,2013-08-24 20:31:00,
2013-08-25 09:36:00,65.5,54.7,29.90,NW,318,2.0,10.0,68,0.00,,,0.00,meteohub,2013-08-24 20:36:00,
2013-08-25 09:41:00,65.7,54.9,29.90,West,260,3.0,10.0,68,0.00,,,0.00,meteohub,2013-08-24 20:41:00,
2013-08-25 09:46:00,65.5,55.4,29.90,ESE,122,2.0,10.0,70,0.00,,,0.00,meteohub,2013-08-24 20:46:00,
2013-08-25 09:51:00,66.2,55.8,29.90,NE,41,3.0,6.0,69,0.00,,,0.00,meteohub,2013-08-24 20:51:00,
2013-08-25 09:56:00,66.2,54.9,29.90,NE,51,3.0,5.0,67,0.00,,,0.00,meteohub,2013-08-24 20:56:00,
2013-08-25 10:01:00,66.0,55.2,29.90,North,3,1.0,7.0,68,0.00,,,0.00,meteohub,2013-08-24 21:01:00,
2013-08-25 10:06:00,66.4,55.6,29.90,North,6,1.0,7.0,68,0.00,,,0.00,meteohub,2013-08-24 21:06:00,
2013-08-25 10:11:00,66.9,54.3,29.90,NW,319,2.0,7.0,64,0.00,,,0.00,meteohub,2013-08-24 21:11:00,
2013-08-25 10:16:00,66.7,54.1,29.90,NW,321,8.0,8.0,64,0.00,,,0.00,meteohub,2013-08-24 21:16:00,
2013-08-25 10:21:00,66.6,54.5,29.90,West,279,6.0,8.0,65,0.00,,,0.00,meteohub,2013-08-24 21:21:00,
2013-08-25 10:26:00,66.0,53.1,29.90,NW,310,4.0,8.0,63,0.00,,,0.00,meteohub,2013-08-24 21:26:00,
2013-08-25 10:31:00,66.0,53.4,29.90,WNW,298,5.0,8.0,64,0.00,,,0.00,meteohub,2013-08-24 21:31:00,
2013-08-25 10:36:00,66.4,53.8,29.90,NW,306,2.0,7.0,64,0.00,,,0.00,meteohub,2013-08-24 21:36:00,
2013-08-25 10:41:00,66.7,54.1,29.90,West,278,5.0,7.0,64,0.00,,,0.00,meteohub,2013-08-24 21:41:00,
2013-08-25 10:46:00,66.7,53.8,29.90,WNW,293,2.0,6.0,63,0.00,,,0.00,meteohub,2013-08-24 21:46:00,
2013-08-25 10:51:00,67.3,54.7,29.89,NNE,28,6.0,6.0,64,0.00,,,0.00,meteohub,2013-08-24 21:51:00,
2013-08-25 10:56:00,67.5,54.9,29.89,NNE,30,5.0,8.0,64,0.00,,,0.00,meteohub,2013-08-24 21:56:00,
2013-08-25 11:01:00,67.1,54.1,29.89,NNE,20,2.0,8.0,63,0.00,,,0.00,meteohub,2013-08-24 22:01:00,
2013-08-25 11:06:00,67.3,54.3,29.89,NW,313,4.0,8.0,63,0.00,,,0.00,meteohub,2013-08-24 22:06:00,
2013-08-25 11:11:00,68.0,54.9,29.89,NE,34,2.0,7.0,63,0.00,,,0.00,meteohub,2013-08-24 22:11:00,
2013-08-25 11:16:00,68.4,54.3,29.89,WNW,297,5.0,6.0,61,0.00,,,0.00,meteohub,2013-08-24 22:16:00,
2013-08-25 11:21:00,68.4,54.3,29.89,WNW,294,6.0,10.0,61,0.00,,,0.00,meteohub,2013-08-24 22:21:00,
2013-08-25 11:26:00,68.4,55.2,29.88,North,359,3.0,10.0,63,0.00,,,0.00,meteohub,2013-08-24 22:26:00,
2013-08-25 11:31:00,68.5,54.5,29.88,NW,321,2.0,10.0,61,0.00,,,0.00,meteohub,2013-08-24 22:31:00,
2013-08-25 11:37:00,68.0,54.5,29.88,East,86,1.0,9.0,62,0.00,,,0.00,meteohub,2013-08-24 22:37:00,
2013-08-25 11:42:00,68.5,55.0,29.88,NNE,12,0.0,7.0,62,0.00,,,0.00,meteohub,2013-08-24 22:42:00,
2013-08-25 11:47:00,69.8,55.2,29.88,WNW,297,6.0,7.0,60,0.00,,,0.00,meteohub,2013-08-24 22:47:00,
2013-08-25 11:52:00,69.1,53.6,29.88,West,274,9.0,12.0,58,0.00,,,0.00,meteohub,2013-08-24 22:52:00,
2013-08-25 11:57:00,68.9,54.9,29.88,NW,314,10.0,12.0,61,0.00,,,0.00,meteohub,2013-08-24 22:57:00,
2013-08-25 12:02:00,69.3,54.3,29.88,NW,324,7.0,12.0,59,0.00,,,0.00,meteohub,2013-08-24 23:02:00,
2013-08-25 12:07:00,68.4,54.0,29.88,NW,314,7.0,13.0,60,0.00,,,0.00,meteohub,2013-08-24 23:07:00,
2013-08-25 12:12:00,68.2,54.1,29.88,WNW,302,6.0,13.0,61,0.00,,,0.00,meteohub,2013-08-24 23:12:00,
2013-08-25 12:17:00,68.5,54.1,29.88,WNW,290,3.0,13.0,60,0.00,,,0.00,meteohub,2013-08-24 23:17:00,
2013-08-25 12:22:00,68.4,54.0,29.87,WNW,296,7.0,11.0,60,0.00,,,0.00,meteohub,2013-08-24 23:22:00,
2013-08-25 12:28:00,68.4,53.4,29.88,NW,320,4.0,11.0,59,0.00,,,0.00,meteohub,2013-08-24 23:28:00,
2013-08-25 12:33:00,68.2,53.2,29.87,NW,314,3.0,11.0,59,0.00,,,0.00,meteohub,2013-08-24 23:33:00,
2013-08-25 12:38:00,68.2,52.9,29.88,NW,319,6.0,11.0,58,0.00,,,0.00,meteohub,2013-08-24 23:38:00,
2013-08-25 12:43:00,68.2,53.2,29.87,WNW,302,5.0,9.0,59,0.00,,,0.00,meteohub,2013-08-24 23:43:00,
2013-08-25 12:48:00,68.4,54.0,29.87,WNW,285,7.0,9.0,60,0.00,,,0.00,meteohub,2013-08-24 23:48:00,
2013-08-25 12:53:00,67.8,53.4,29.87,WNW,290,3.0,9.0,60,0.00,,,0.00,meteohub,2013-08-24 23:53:00,
2013-08-25 12:58:00,67.8,53.4,29.87,WNW,287,6.0,11.0,60,0.00,,,0.00,meteohub,2013-08-24 23:58:00,
2013-08-25 13:03:00,67.6,53.2,29.87,WNW,295,7.0,11.0,60,0.00,,,0.00,meteohub,2013-08-25 00:03:00,
2013-08-25 13:08:00,67.8,54.0,29.87,NNW,327,2.0,10.0,61,0.00,,,0.00,meteohub,2013-08-25 00:08:00,
2013-08-25 13:13:00,67.8,52.9,29.87,WNW,297,5.0,10.0,59,0.00,,,0.00,meteohub,2013-08-25 00:13:00,
2013-08-25 13:18:00,68.0,53.6,29.87,NNW,332,1.0,9.0,60,0.00,,,0.00,meteohub,2013-08-25 00:18:00,
2013-08-25 13:23:00,68.0,53.1,29.87,WNW,293,5.0,8.0,59,0.00,,,0.00,meteohub,2013-08-25 00:23:00,
2013-08-25 13:28:00,68.0,52.7,29.87,NW,318,4.0,8.0,58,0.00,,,0.00,meteohub,2013-08-25 00:28:00,
2013-08-25 13:33:00,68.4,54.0,29.87,NW,313,4.0,7.0,60,0.00,,,0.00,meteohub,2013-08-25 00:33:00,
2013-08-25 13:38:00,68.7,53.4,29.87,West,272,4.0,7.0,58,0.00,,,0.00,meteohub,2013-08-25 00:38:00,
2013-08-25 13:43:00,68.5,52.7,29.87,NW,307,6.0,7.0,57,0.00,,,0.00,meteohub,2013-08-25 00:43:00,
2013-08-25 13:48:00,68.4,53.4,29.87,North,358,2.0,8.0,59,0.00,,,0.00,meteohub,2013-08-25 00:48:00,
2013-08-25 13:54:00,68.5,53.2,29.87,NNE,22,1.0,8.0,58,0.00,,,0.00,meteohub,2013-08-25 00:54:00,
2013-08-25 13:59:00,69.1,53.2,29.87,NE,43,3.0,8.0,57,0.00,,,0.00,meteohub,2013-08-25 00:59:00,
2013-08-25 14:04:00,69.4,53.1,29.86,NNE,14,2.0,7.0,56,0.00,,,0.00,meteohub,2013-08-25 01:04:00,
2013-08-25 14:09:00,69.1,52.7,29.86,NW,321,8.0,8.0,56,0.00,,,0.00,meteohub,2013-08-25 01:09:00,
2013-08-25 14:14:00,68.7,53.4,29.86,WNW,295,6.0,9.0,58,0.00,,,0.00,meteohub,2013-08-25 01:14:00,
2013-08-25 14:19:00,69.3,53.4,29.86,WNW,303,4.0,9.0,57,0.00,,,0.00,meteohub,2013-08-25 01:19:00,
2013-08-25 14:24:00,68.7,52.9,29.86,NW,309,4.0,9.0,57,0.00,,,0.00,meteohub,2013-08-25 01:24:00,
2013-08-25 14:29:00,68.5,53.2,29.86,NW,320,5.0,8.0,58,0.00,,,0.00,meteohub,2013-08-25 01:29:00,
2013-08-25 14:34:00,68.5,53.2,29.86,WNW,293,3.0,7.0,58,0.00,,,0.00,meteohub,2013-08-25 01:34:00,
2013-08-25 14:39:00,68.4,52.5,29.86,WNW,300,8.0,8.0,57,0.00,,,0.00,meteohub,2013-08-25 01:39:00,
2013-08-25 14:44:00,68.5,53.2,29.86,WNW,302,6.0,8.0,58,0.00,,,0.00,meteohub,2013-08-25 01:44:00,
2013-08-25 14:49:00,68.7,53.4,29.86,North,349,5.0,10.0,58,0.00,,,0.00,meteohub,2013-08-25 01:49:00,
2013-08-25 14:54:00,68.5,53.6,29.86,WNW,301,4.0,10.0,59,0.00,,,0.00,meteohub,2013-08-25 01:54:00,
2013-08-25 14:59:00,68.2,53.2,29.86,NW,308,4.0,10.0,59,0.00,,,0.00,meteohub,2013-08-25 01:59:00,
2013-08-25 15:04:00,67.6,53.8,29.86,WNW,298,11.0,11.0,61,0.00,,,0.00,meteohub,2013-08-25 02:04:00,
2013-08-25 15:09:00,66.9,54.0,29.86,WNW,294,12.0,13.0,63,0.00,,,0.00,meteohub,2013-08-25 02:09:00,
2013-08-25 15:14:00,66.4,53.4,29.86,WNW,302,9.0,13.0,63,0.00,,,0.00,meteohub,2013-08-25 02:14:00,
2013-08-25 15:19:00,66.2,53.2,29.86,WNW,295,11.0,13.0,63,0.00,,,0.00,meteohub,2013-08-25 02:19:00,
2013-08-25 15:24:00,66.0,53.4,29.86,WNW,293,7.0,13.0,64,0.00,,,0.00,meteohub,2013-08-25 02:24:00,
2013-08-25 15:30:00,65.8,53.2,29.86,NW,314,7.0,12.0,64,0.00,,,0.00,meteohub,2013-08-25 02:30:00,
2013-08-25 15:35:00,65.7,53.2,29.86,WNW,299,8.0,11.0,64,0.00,,,0.00,meteohub,2013-08-25 02:35:00,
2013-08-25 15:40:00,65.5,53.4,29.86,WNW,295,9.0,11.0,65,0.00,,,0.00,meteohub,2013-08-25 02:40:00,
2013-08-25 15:45:00,65.1,53.1,29.86,WNW,293,9.0,11.0,65,0.00,,,0.00,meteohub,2013-08-25 02:45:00,
2013-08-25 15:50:00,64.9,53.2,29.87,WNW,295,9.0,11.0,66,0.00,,,0.00,meteohub,2013-08-25 02:50:00,
2013-08-25 15:55:00,64.8,53.6,29.87,WNW,302,9.0,11.0,67,0.00,,,0.00,meteohub,2013-08-25 02:55:00,
2013-08-25 16:00:00,64.6,53.4,29.87,WNW,293,8.0,11.0,67,0.00,,,0.00,meteohub,2013-08-25 03:00:00,
2013-08-25 16:05:00,64.2,53.4,29.87,WNW,302,8.0,11.0,68,0.00,,,0.00,meteohub,2013-08-25 03:05:00,
2013-08-25 16:10:00,64.0,53.6,29.87,NW,306,9.0,11.0,69,0.00,,,0.00,meteohub,2013-08-25 03:10:00,
2013-08-25 16:15:00,63.9,53.4,29.87,NW,313,9.0,10.0,69,0.00,,,0.00,meteohub,2013-08-25 03:15:00,
2013-08-25 16:20:00,63.7,53.2,29.87,NNW,335,7.0,11.0,69,0.00,,,0.00,meteohub,2013-08-25 03:20:00,
2013-08-25 16:25:00,63.5,53.1,29.87,NW,321,9.0,13.0,69,0.00,,,0.00,meteohub,2013-08-25 03:25:00,
2013-08-25 16:30:00,63.3,53.1,29.88,NNW,330,9.0,13.0,69,0.00,,,0.00,meteohub,2013-08-25 03:30:00,
2013-08-25 16:35:00,63.1,53.2,29.88,NNW,327,7.0,13.0,70,0.00,,,0.00,meteohub,2013-08-25 03:35:00,
2013-08-25 16:40:00,63.1,53.2,29.88,NW,323,7.0,13.0,70,0.00,,,0.00,meteohub,2013-08-25 03:40:00,
2013-08-25 16:45:00,63.1,53.2,29.88,NNW,345,9.0,13.0,70,0.00,,,0.00,meteohub,2013-08-25 03:45:00,
2013-08-25 16:50:00,63.1,53.2,29.89,NNW,347,9.0,13.0,70,0.00,,,0.00,meteohub,2013-08-25 03:50:00,
2013-08-25 16:55:00,62.8,52.9,29.89,NW,321,7.0,12.0,70,0.00,,,0.00,meteohub,2013-08-25 03:55:00,
2013-08-25 17:00:00,62.6,53.1,29.89,North,357,12.0,12.0,71,0.00,,,0.00,meteohub,2013-08-25 04:00:00,
2013-08-25 17:01:00,62.6,53.1,29.89,North,1,12.0,12.0,71,0.00,,,0.00,meteohub,2013-08-25 04:01:00,
2013-08-25 17:02:00,62.8,53.2,29.89,NNE,18,11.0,12.0,71,0.00,,,0.00,meteohub,2013-08-25 04:02:00,
2013-08-25 17:06:00,63.0,53.4,29.89,North,354,13.0,15.0,71,0.00,,,0.00,meteohub,2013-08-25 04:06:00,
2013-08-25 17:11:00,62.8,53.2,29.89,North,357,13.0,15.0,71,0.00,,,0.00,meteohub,2013-08-25 04:11:00,
2013-08-25 17:16:00,62.6,53.1,29.90,North,349,12.0,16.0,71,0.00,,,0.00,meteohub,2013-08-25 04:16:00,
2013-08-25 17:21:00,62.4,52.9,29.90,North,352,10.0,16.0,71,0.00,,,0.00,meteohub,2013-08-25 04:21:00,
2013-08-25 17:26:00,62.2,53.1,29.90,North,0,9.0,16.0,72,0.00,,,0.00,meteohub,2013-08-25 04:26:00,
2013-08-25 17:31:00,62.1,52.9,29.90,NNE,30,5.0,14.0,72,0.00,,,0.00,meteohub,2013-08-25 04:31:00,
2013-08-25 17:36:00,61.9,53.1,29.90,NNE,16,10.0,14.0,73,0.00,,,0.00,meteohub,2013-08-25 04:36:00,
2013-08-25 17:41:00,61.9,53.1,29.90,North,9,10.0,11.0,73,0.00,,,0.00,meteohub,2013-08-25 04:41:00,
2013-08-25 17:46:00,61.9,52.7,29.90,NNE,24,9.0,12.0,72,0.00,,,0.00,meteohub,2013-08-25 04:46:00,
2013-08-25 17:51:00,61.5,52.3,29.90,NNE,28,9.0,12.0,72,0.00,,,0.00,meteohub,2013-08-25 04:51:00,
2013-08-25 17:56:00,61.3,52.7,29.90,NE,34,10.0,12.0,73,0.00,,,0.00,meteohub,2013-08-25 04:56:00,
2013-08-25 18:02:00,61.2,52.5,29.90,NNE,32,11.0,11.0,73,0.00,,,0.00,meteohub,2013-08-25 05:02:00,
2013-08-25 18:07:00,60.8,52.9,29.90,NNE,23,9.0,13.0,75,0.00,,,0.00,meteohub,2013-08-25 05:07:00,
2013-08-25 18:12:00,60.6,53.1,29.90,NNE,20,9.0,13.0,76,0.00,,,0.00,meteohub,2013-08-25 05:12:00,
2013-08-25 18:17:00,60.6,53.4,29.90,NNE,33,10.0,13.0,77,0.00,,,0.00,meteohub,2013-08-25 05:17:00,
2013-08-25 18:22:00,60.4,53.2,29.90,NNE,15,11.0,12.0,77,0.00,,,0.00,meteohub,2013-08-25 05:22:00,
2013-08-25 18:27:00,60.4,53.2,29.90,NNE,12,12.0,12.0,77,0.00,,,0.00,meteohub,2013-08-25 05:27:00,
2013-08-25 18:32:00,60.3,53.4,29.90,NNE,21,7.0,13.0,78,0.00,,,0.00,meteohub,2013-08-25 05:32:00,
2013-08-25 18:37:00,60.3,53.8,29.90,NNE,18,9.0,13.0,79,0.00,,,0.00,meteohub,2013-08-25 05:37:00,
2013-08-25 18:42:00,60.3,53.8,29.90,North,1,7.0,13.0,79,0.00,,,0.00,meteohub,2013-08-25 05:42:00,
2013-08-25 18:47:00,60.3,53.8,29.90,NNW,337,8.0,12.0,79,0.00,,,0.00,meteohub,2013-08-25 05:47:00,
2013-08-25 18:52:00,60.1,53.6,29.90,NNW,344,6.0,12.0,79,0.00,,,0.00,meteohub,2013-08-25 05:52:00,
2013-08-25 18:57:00,60.1,53.6,29.90,NNE,19,8.0,12.0,79,0.00,,,0.00,meteohub,2013-08-25 05:57:00,
2013-08-25 19:02:00,59.9,53.4,29.91,North,358,10.0,12.0,79,0.00,,,0.00,meteohub,2013-08-25 06:02:00,
2013-08-25 19:07:00,59.7,53.2,29.91,North,11,11.0,11.0,79,0.00,,,0.00,meteohub,2013-08-25 06:07:00,
2013-08-25 19:12:00,59.7,53.2,29.91,North,358,10.0,11.0,79,0.00,,,0.00,meteohub,2013-08-25 06:12:00,
2013-08-25 19:17:00,59.7,53.2,29.91,North,350,10.0,12.0,79,0.00,,,0.00,meteohub,2013-08-25 06:17:00,
2013-08-25 19:22:00,59.7,53.2,29.90,North,355,10.0,13.0,79,0.00,,,0.00,meteohub,2013-08-25 06:22:00,
2013-08-25 19:27:00,59.7,53.6,29.90,North,359,7.0,13.0,80,0.00,,,0.00,meteohub,2013-08-25 06:27:00,
2013-08-25 19:32:00,59.5,53.4,29.90,North,356,9.0,13.0,80,0.00,,,0.00,meteohub,2013-08-25 06:32:00,
2013-08-25 19:37:00,59.4,53.2,29.90,NNE,12,11.0,13.0,80,0.00,,,0.00,meteohub,2013-08-25 06:37:00,
2013-08-25 19:42:00,59.4,53.2,29.91,North,7,9.0,13.0,80,0.00,,,0.00,meteohub,2013-08-25 06:42:00,
2013-08-25 19:48:00,59.2,53.1,29.90,North,2,13.0,13.0,80,0.00,,,0.00,meteohub,2013-08-25 06:48:00,
2013-08-25 19:53:00,59.4,52.9,29.90,North,4,9.0,13.0,79,0.00,,,0.00,meteohub,2013-08-25 06:53:00,
2013-08-25 19:58:00,59.4,52.9,29.90,North,349,12.0,15.0,79,0.00,,,0.00,meteohub,2013-08-25 06:58:00,
2013-08-25 20:03:00,59.4,52.9,29.90,NNE,19,9.0,16.0,79,0.00,,,0.00,meteohub,2013-08-25 07:03:00,
2013-08-25 20:08:00,59.2,52.7,29.90,NNE,26,9.0,16.0,79,0.00,,,0.00,meteohub,2013-08-25 07:08:00,
2013-08-25 20:13:00,59.2,52.7,29.91,North,4,6.0,16.0,79,0.00,,,0.00,meteohub,2013-08-25 07:13:00,
2013-08-25 20:18:00,59.2,52.7,29.91,NNE,18,9.0,15.0,79,0.00,,,0.00,meteohub,2013-08-25 07:18:00,
2013-08-25 20:23:00,58.8,52.3,29.91,WNW,302,9.0,13.0,79,0.00,,,0.00,meteohub,2013-08-25 07:23:00,
2013-08-25 20:28:00,58.6,52.2,29.91,NNE,27,7.0,15.0,79,0.00,,,0.00,meteohub,2013-08-25 07:28:00,
2013-08-25 20:33:00,58.5,52.3,29.91,North,7,10.0,15.0,80,0.00,,,0.00,meteohub,2013-08-25 07:33:00,
2013-08-25 20:38:00,58.5,52.3,29.91,North,11,12.0,15.0,80,0.00,,,0.00,meteohub,2013-08-25 07:38:00,
2013-08-25 20:43:00,58.3,52.2,29.91,NNE,23,8.0,12.0,80,0.00,,,0.00,meteohub,2013-08-25 07:43:00,
2013-08-25 20:48:00,58.3,52.2,29.91,NNE,15,6.0,12.0,80,0.00,,,0.00,meteohub,2013-08-25 07:48:00,
2013-08-25 20:53:00,58.1,52.0,29.90,NE,34,10.0,13.0,80,0.00,,,0.00,meteohub,2013-08-25 07:53:00,
2013-08-25 20:58:00,57.9,52.2,29.91,NNE,13,8.0,13.0,81,0.00,,,0.00,meteohub,2013-08-25 07:58:00,
2013-08-25 21:03:00,57.9,52.2,29.91,North,1,8.0,13.0,81,0.00,,,0.00,meteohub,2013-08-25 08:03:00,
2013-08-25 21:08:00,57.7,52.0,29.91,NNE,13,10.0,11.0,81,0.00,,,0.00,meteohub,2013-08-25 08:08:00,
2013-08-25 21:13:00,57.7,52.0,29.91,North,6,7.0,11.0,81,0.00,,,0.00,meteohub,2013-08-25 08:13:00,
2013-08-25 21:18:00,57.7,52.0,29.91,North,357,9.0,11.0,81,0.00,,,0.00,meteohub,2013-08-25 08:18:00,
2013-08-25 21:23:00,57.7,52.0,29.91,NNE,13,8.0,11.0,81,0.00,,,0.00,meteohub,2013-08-25 08:23:00,
2013-08-25 21:28:00,57.6,51.8,29.91,NNE,20,8.0,11.0,81,0.00,,,0.00,meteohub,2013-08-25 08:28:00,
2013-08-25 21:33:00,57.4,51.6,29.91,North,355,10.0,11.0,81,0.00,,,0.00,meteohub,2013-08-25 08:33:00,
2013-08-25 21:38:00,57.4,51.6,29.90,NNE,25,11.0,11.0,81,0.00,,,0.00,meteohub,2013-08-25 08:38:00,
2013-08-25 21:43:00,57.0,51.6,29.90,NNE,19,12.0,13.0,82,0.00,,,0.00,meteohub,2013-08-25 08:43:00,
2013-08-25 21:48:00,57.0,51.6,29.90,NNE,30,11.0,13.0,82,0.00,,,0.00,meteohub,2013-08-25 08:48:00,
2013-08-25 21:53:00,57.0,51.6,29.90,North,356,9.0,13.0,82,0.00,,,0.00,meteohub,2013-08-25 08:53:00,
2013-08-25 21:58:00,57.0,51.3,29.90,North,9,12.0,13.0,81,0.00,,,0.00,meteohub,2013-08-25 08:58:00,
2013-08-25 22:04:00,57.0,51.6,29.90,North,4,11.0,14.0,82,0.00,,,0.00,meteohub,2013-08-25 09:04:00,
2013-08-25 22:09:00,57.0,51.6,29.90,NNE,12,11.0,15.0,82,0.00,,,0.00,meteohub,2013-08-25 09:09:00,
2013-08-25 22:14:00,57.2,51.8,29.90,NNE,13,10.0,15.0,82,0.00,,,0.00,meteohub,2013-08-25 09:14:00,
2013-08-25 22:19:00,57.0,51.6,29.90,NNE,25,13.0,15.0,82,0.00,,,0.00,meteohub,2013-08-25 09:19:00,
2013-08-25 22:24:00,56.8,51.8,29.90,ENE,59,11.0,15.0,83,0.00,,,0.00,meteohub,2013-08-25 09:24:00,
2013-08-25 22:29:00,56.8,51.8,29.90,North,7,8.0,15.0,83,0.00,,,0.00,meteohub,2013-08-25 09:29:00,
2013-08-25 22:34:00,56.7,51.6,29.90,North,5,11.0,15.0,83,0.00,,,0.00,meteohub,2013-08-25 09:34:00,
2013-08-25 22:39:00,56.5,51.6,29.90,NE,40,10.0,13.0,84,0.00,,,0.00,meteohub,2013-08-25 09:39:00,
2013-08-25 22:44:00,56.3,51.3,29.90,NNE,12,8.0,14.0,83,0.00,,,0.00,meteohub,2013-08-25 09:44:00,
2013-08-25 22:49:00,56.1,50.7,29.90,North,354,10.0,14.0,82,0.00,,,0.00,meteohub,2013-08-25 09:49:00,
2013-08-25 22:54:00,55.9,50.9,29.90,North,4,10.0,13.0,83,0.00,,,0.00,meteohub,2013-08-25 09:54:00,
2013-08-25 22:59:00,55.9,50.9,29.90,NNE,17,9.0,14.0,83,0.00,,,0.00,meteohub,2013-08-25 09:59:00,
2013-08-25 23:04:00,55.9,51.3,29.90,North,11,12.0,15.0,84,0.00,,,0.00,meteohub,2013-08-25 10:04:00,
2013-08-25 23:09:00,55.9,50.9,29.89,NNE,23,13.0,15.0,83,0.00,,,0.00,meteohub,2013-08-25 10:09:00,
2013-08-25 23:14:00,55.9,50.9,29.89,NNE,25,13.0,15.0,83,0.00,,,0.00,meteohub,2013-08-25 10:14:00,
2013-08-25 23:19:00,55.9,50.9,29.90,NNE,24,12.0,15.0,83,0.00,,,0.00,meteohub,2013-08-25 10:19:00,
2013-08-25 23:24:00,55.9,51.3,29.89,NE,44,11.0,15.0,84,0.00,,,0.00,meteohub,2013-08-25 10:24:00,
2013-08-25 23:29:00,56.3,51.4,29.89,NNE,31,12.0,15.0,84,0.00,,,0.00,meteohub,2013-08-25 10:29:00,
2013-08-25 23:34:00,56.5,51.6,29.89,NE,34,14.0,15.0,84,0.00,,,0.00,meteohub,2013-08-25 10:34:00,
2013-08-25 23:39:00,56.5,51.6,29.89,NE,41,13.0,15.0,84,0.00,,,0.00,meteohub,2013-08-25 10:39:00,
2013-08-25 23:44:00,56.5,52.0,29.89,NE,41,12.0,15.0,85,0.00,,,0.00,meteohub,2013-08-25 10:44:00,
2013-08-25 23:49:00,56.3,51.8,29.89,NE,46,11.0,14.0,85,0.00,,,0.00,meteohub,2013-08-25 10:49:00,
2013-08-25 23:54:00,56.3,52.2,29.89,NE,51,10.0,14.0,86,0.00,,,0.00,meteohub,2013-08-25 10:54:00,
2013-08-25 23:59:00,56.1,52.3,29.89,NE,48,11.0,14.0,87,0.00,,,0.00,meteohub,2013-08-25 10:59:00,